Change the Weather History Date:

Monday, May 13, 2013

  Actual Average Record
Temperature  
Mean Temperature -4 °F -  
Max Temperature 0 °F 19 °F 33 °F (1997)
Min Temperature -8 °F 9 °F -8 °F (2013)
Degree Days  
Heating Degree Days 69    
Moisture  
Dew Point -9 °F    
Average Humidity 72    
Maximum Humidity 78    
Minimum Humidity 54    
Precipitation  
Precipitation 0.00 in - - ()
Sea Level Pressure  
Sea Level Pressure 30.22 in    
Wind  
Wind Speed 6 mph ()    
Max Wind Speed 9 mph    
Max Gust Speed -    
Visibility 10.2 miles    
Events Snow    
Averages and records for this station are not official NWS values.
T = Trace of Precipitation, MM = Missing Value Source: Averaged Metar Reports

Daily Weather History Graph

Daily Weather History Graph

Search for Another Location

Airport or City:

Trip Planner

Search our weather history database for the weather conditions in past years. The results will help you decide how hot, cold, wet, or windy it might be!

Date:

Astronomy

Dec. 31, 1969 Rise Set
Actual Time Sun does not rise Sun does not rise
Civil Twilight Sun does not rise Sun does not rise
Nautical Twilight Sun does not rise Sun does not rise
Astronomical Twilight Sun does not rise Sun does not rise
Moon No Moon Rise No Moon Set
Length of Visible Light 24h 00m
Length of Day
24h 00m
Waxing Crescent, 12% of the Moon is Illuminated
May 13
Waxing Crescent
May 18
First Quarter
May 25
Full
May 31
Last Quarter
Jun 8
New

Hourly Weather History & Observations

Time (EDT) Temp. Windchill Dew Point Humidity Pressure Visibility Wind Dir Wind Speed Gust Speed Precip Events Conditions
12:00 AM -4.0 °F -16.3 °F -9.4 °F 78% 30.23 in 9.0 mi SSE 5.8 mph - N/A Snow Light Snow
1:00 AM -2.2 °F -14.2 °F -7.6 °F 78% 30.23 in 9.0 mi South 5.8 mph - N/A Snow Light Snow
2:00 AM -6 °F - -11 °F 70% 30.23 in 6 mi South 6.9 mph - - Snow Light Snow
2:00 AM -5.8 °F -19.9 °F -11.2 °F 77% 30.23 in 6.0 mi South 6.9 mph - N/A Snow Light Snow
3:00 AM -5.8 °F -21.2 °F -11.2 °F 77% 30.23 in 9.0 mi SSE 8.1 mph - N/A Snow Light Snow
4:00 AM -5.8 °F -19.9 °F -11.2 °F 77% 30.23 in 9.0 mi South 6.9 mph - N/A Snow Light Snow
5:00 AM -7 °F - -13 °F 64% 30.23 in 10 mi South 8.1 mph - - Snow Light Snow
5:00 AM -7.6 °F -23.4 °F -13.0 °F 77% 30.23 in 9.0 mi South 8.1 mph - N/A Snow Light Snow
6:00 AM -7.6 °F -24.6 °F -13.0 °F 77% 30.23 in 9.0 mi South 9.2 mph - N/A Snow Light Snow
7:00 AM -5.8 °F -18.4 °F -11.2 °F 77% 30.23 in 9.0 mi South 5.8 mph - N/A Snow Light Snow
8:00 AM -4 °F - -11 °F 58% 30.23 in 10 mi South 6.9 mph - - Snow Light Snow
8:00 AM -4.0 °F -17.8 °F -11.2 °F 71% 30.23 in 9.0 mi South 6.9 mph - N/A Snow Light Snow
8:24 AM -4.0 °F -17.8 °F -9.4 °F 78% 30.23 in 9.0 mi South 6.9 mph - N/A   Clear
8:26 AM -4.0 °F -17.8 °F -9.4 °F 78% 30.23 in 9.0 mi South 6.9 mph - N/A Snow Light Snow
9:00 AM -4.0 °F -16.3 °F -9.4 °F 78% 30.23 in 9.0 mi South 5.8 mph - N/A Snow Light Snow
10:00 AM -0.4 °F -10.4 °F -7.6 °F 72% 30.22 in 9.0 mi SSW 4.6 mph - N/A Snow Light Snow
11:00 AM -1 °F - -7 °F 62% 30.22 in 10 mi SSW 3.5 mph - - Snow Light Snow
11:00 AM -0.4 °F -8.3 °F -7.6 °F 72% 30.21 in 15.0 mi SSW 3.5 mph - N/A   Partly Cloudy
12:00 PM -0.4 °F -13.4 °F -7.6 °F 72% 30.22 in 15.0 mi SSW 6.9 mph - N/A   Partly Cloudy
1:00 PM -0.4 °F -12.0 °F -7.6 °F 72% 30.22 in 15.0 mi SW 5.8 mph - N/A Snow Light Snow
2:00 PM -1 °F - -7 °F 64% 30.22 in 10 mi SSW 5.8 mph - - Snow Light Snow
2:00 PM -0.4 °F -12.0 °F -7.6 °F 72% 30.22 in 15.0 mi SSW 5.8 mph - N/A Snow Light Snow
3:00 PM -0.4 °F -10.4 °F -5.8 °F 78% 30.21 in 15.0 mi SSW 4.6 mph - N/A   Partly Cloudy
5:00 PM 0 °F - -6 °F 66% 30.22 in 10 mi SSW 4.6 mph - - Snow Light Snow
5:00 PM -0.4 °F -10.4 °F -5.8 °F 78% 30.21 in 15.0 mi SSW 4.6 mph - N/A   Clear
6:00 PM -0.4 °F -12.0 °F -5.8 °F 78% 30.22 in 30.0 mi SSW 5.8 mph - N/A   Clear
7:00 PM -2.2 °F -14.2 °F -7.6 °F 78% 30.21 in 9.0 mi SSE 5.8 mph - N/A Snow Light Snow
8:00 PM -3 °F - -9 °F 64% 30.21 in 10 mi South 4.6 mph - - Snow Light Snow
8:00 PM -2.2 °F -12.5 °F -9.4 °F 71% 30.21 in 9.0 mi South 4.6 mph - N/A Snow Light Snow
9:00 PM -2.2 °F -14.2 °F -9.4 °F 71% 30.21 in 9.0 mi SSE 5.8 mph - N/A Snow Light Snow
10:00 PM -4.0 °F -14.6 °F -11.2 °F 71% 30.20 in 9.0 mi South 4.6 mph - N/A Snow Light Snow
11:00 PM -6 °F - -14 °F 54% 30.20 in 10 mi SSE 4.6 mph - - Snow Light Snow
11:00 PM -5.8 °F -14.5 °F -14.8 °F 65% 30.19 in 9.0 mi SSE 3.5 mph - N/A Snow Light Snow